Probability
0 0 0 0 0 0 0 0 0 0 0 0 0 0 0 0 0 0 0 0 0 0 0 0 0 0 0 0 0 0 0 0 0 0 0 0 0 0
0 0 0 0 0 0 0 0 0 0 0 0 0 0 0 0 0 0 0 0 0 0 0 0 0 0 0 0 0 0 0 0 0 0 0 0 0 0
0 0 0 0 0 0 0 0 0 0 0 0 0 0 0 0 0 0 0 0 0 0 0 0 0 0 0 0 0 0 0 0 0 0 0 0 0 0
0 0 0 0 0 0 0 0 0 0 0 0 0 0 0 0 0 0 0 0 0 0 0 0 0 0 0 0 0 0 0 0 0 0 0 0 0 0
0 0 0 0 0 0 0 0 0 0 0 0 0 0 0 0 0 0 0 0 0 0 0 0 0 0 0 0 0 0 0 0 0 0 0 0 0 0
0 0 0 0 0 0 0 0 0 0 0 0 0 0 0 0 0 0 0 0 0 0 0 0 0 0 0 0 0 0 0 0 0 0 0 0 0 0
0 0 0 0 0 0 0 0 0 0 0 0 0 0 0 0 0 0 0 0 0 0 0 0 0 0 0 0 0 0 0 0 0 0 0 0 0 0
0 0 0 0 0 0 0 0 0 0 0 0 0 0 0 0 0 0 0 0 0 0 0 0 0 0 0 0 0 0 0 0 0 0 0 0 0 0
0 0 0 0 0 0 0 0 0 0 0 0 0 0 0 0 0 0 0 0 0 0 0 0 0 0 0 0 0 0 0 0 0 0 0 0 0 0
0 0 0 0 0 0 0 0 0 0 0 0 0 0 0 0 0 0 0 0 0 0 0 0 0 0 0 0 0 0 0 0 0 0 0 0 0 0
0 0 0 0 0 0 0 0 0 0 0 0 0 0 0 0 0 0 0 0 0 0 0 0 0 0 0 0 0 0 0 0 0 0 0 0 0 0
0 0 0 0 0 0 0 0 0 0 0 0 0 0 0 0 0 0 0 0 0 0 0 0 0 0 0 0 0 0 0 0 0 0 0 0 0 0
0 0 0 0 0 0 0 0 0 0 0 0 0 0 0 0 0 0 0 0 0 0 0 0 0 0 0 0 0 0 0 0 0 0 0 0 0 0
0 0 0 0 0 0 0 0 0 0 0 0 0 0 0 0 0 0 0 0 0 0 0 0 0 0 0 0 0 0 0 0 0 0 0 0 0 0
0 0 0 0 0 0 0 0 0 0 0 0 0 0 0 0 0 0 0 0 0 0 0 0 0 0 0 0 0 0 0 0 0 0 0 0 0 0
0 0 0 0 0 0 0 0 0 0 0 0 0 0 0 0 0 0 0 0 0 0 0 0 0 0 0 0 0 0 0 0 0 0 0 0 0 0
0 0 0 0 0 0 0 0 0 0 0 0 0 0 0 0 0 0 0 0 0 0 0 0 0 0 0 0 0 0 0 0 0 0 0 0 0 0
0 0 0 0 0 0 0 0 0 0 0 0 0 0 0 0 0 0 0 0 0 0 0 0 0 0 0 0 0 0 0 0 0 0 0 0 0 0
0 0 0 0 0 0 0 0 0 0 0 0 0 0 0 0 0 0 0 0 0 0 0 0 0 0 0 0 0 0 0 0 0 0 0 0 0 0
0 0 0 0 0 0 0 0 0 0 0 0 0 0 0 0 0 0 0 0 0 0 0 0 0 0 0 0 0 0 0 0 0 0 0 0 0 0
0 0 0 0 0 0 0 0 0 0 0 0 0 0 0 0 0 0 0 0 0 0 0 0 0 0 0 0 0 0 0 0 0 0 0 0 0 0
0 0 0 0 0 0 0 0 0 0 0 0 0 0 0 0 0 0 0 0 0 0 0 0 0 0 0 0 0 0 0 0 0 0 0 0 0 0
0 0 0 0 0 0 0 0 0 0 0 0 0 0 0 0 0 0 0 0 0 0 0 0 0 0 0 0 0 0 0 0 0 0 0 0 0 0
Height
5686 5680 5674 5668 5661 5654 5647 5640 5634 5631 5628 5622 5615 5609 5604 5600 5596 5594 5593 5592 5590 5590 5591 5592 5593 5595 5598 5601 5605 5609 5614 5619 5625 5631 5637 5644 5651 5657
5672 5665 5658 5651 5644 5637 5629 5622 5615 5609 5607 5603 5596 5590 5584 5580 5576 5574 5572 5571 5570 5570 5570 5571 5572 5574 5576 5580 5583 5588 5593 5599 5605 5612 5619 5626 5634 5641
5657 5650 5643 5635 5628 5620 5612 5605 5597 5589 5585 5582 5575 5570 5565 5561 5558 5556 5554 5553 5553 5552 5552 5552 5554 5555 5557 5560 5564 5568 5573 5578 5585 5592 5600 5608 5617 5626
5642 5634 5627 5619 5611 5603 5595 5587 5579 5572 5565 5562 5558 5553 5549 5546 5544 5542 5540 5538 5538 5537 5537 5537 5538 5540 5541 5543 5546 5550 5554 5560 5566 5574 5582 5591 5600 5609
5627 5619 5611 5603 5595 5586 5578 5570 5563 5556 5550 5546 5544 5540 5537 5533 5531 5530 5528 5526 5525 5525 5525 5525 5525 5526 5527 5529 5532 5535 5539 5544 5551 5558 5565 5574 5584 5593
5612 5604 5595 5587 5579 5570 5563 5556 5549 5543 5538 5534 5531 5529 5526 5523 5521 5519 5518 5516 5515 5515 5515 5515 5515 5515 5516 5518 5520 5523 5526 5531 5536 5544 5552 5560 5570 5580
5597 5589 5580 5572 5563 5556 5550 5544 5538 5533 5529 5525 5522 5520 5518 5515 5513 5511 5510 5509 5508 5507 5507 5507 5507 5507 5508 5509 5511 5513 5517 5521 5526 5533 5540 5549 5558 5568
5583 5575 5566 5559 5552 5545 5540 5534 5530 5526 5522 5519 5516 5514 5511 5509 5508 5506 5505 5504 5503 5502 5501 5501 5500 5501 5501 5502 5504 5506 5509 5513 5518 5524 5531 5539 5548 5557
5570 5562 5555 5548 5542 5537 5531 5527 5523 5519 5517 5514 5512 5510 5508 5506 5505 5503 5501 5500 5499 5498 5497 5497 5496 5496 5496 5497 5498 5500 5503 5507 5511 5517 5523 5531 5539 5548
5558 5552 5546 5540 5534 5529 5525 5522 5519 5516 5514 5512 5510 5508 5506 5505 5503 5501 5500 5498 5497 5495 5494 5493 5493 5492 5492 5492 5493 5495 5498 5501 5506 5511 5517 5524 5532 5540
5549 5544 5539 5534 5529 5525 5522 5519 5517 5515 5513 5511 5509 5508 5506 5504 5503 5501 5499 5497 5496 5494 5492 5491 5490 5489 5489 5489 5489 5491 5493 5496 5500 5505 5511 5518 5525 5533
5543 5538 5534 5530 5527 5523 5520 5518 5516 5515 5513 5512 5510 5509 5507 5505 5503 5501 5499 5497 5495 5493 5491 5489 5488 5487 5486 5486 5485 5486 5488 5490 5494 5499 5505 5511 5519 5527
5538 5534 5531 5528 5525 5523 5520 5519 5517 5516 5515 5513 5512 5510 5509 5507 5505 5502 5500 5497 5495 5492 5490 5489 5487 5485 5484 5483 5483 5483 5483 5485 5488 5492 5498 5505 5513 5522
5535 5532 5530 5528 5526 5523 5522 5520 5519 5518 5516 5515 5514 5512 5510 5508 5506 5504 5502 5499 5496 5494 5491 5489 5488 5486 5484 5482 5481 5480 5480 5481 5484 5487 5493 5499 5507 5516
5533 5531 5530 5528 5527 5525 5524 5522 5521 5520 5519 5518 5516 5514 5513 5511 5509 5507 5504 5502 5499 5496 5494 5492 5490 5487 5485 5483 5482 5480 5480 5480 5482 5485 5490 5497 5504 5513
5533 5532 5531 5530 5529 5527 5526 5525 5524 5523 5521 5520 5519 5517 5516 5514 5513 5510 5508 5505 5503 5500 5498 5495 5493 5490 5488 5486 5484 5483 5482 5483 5484 5487 5492 5497 5504 5511
5534 5533 5532 5532 5531 5530 5529 5528 5526 5525 5524 5523 5522 5521 5520 5519 5517 5515 5512 5510 5507 5505 5503 5500 5498 5495 5493 5491 5490 5488 5487 5488 5489 5492 5496 5500 5506 5512
5535 5535 5535 5534 5533 5532 5531 5530 5529 5528 5527 5527 5526 5525 5524 5523 5522 5520 5518 5515 5513 5511 5508 5506 5503 5502 5500 5498 5497 5495 5494 5495 5496 5498 5502 5506 5511 5516
5537 5537 5537 5537 5536 5535 5534 5533 5532 5531 5531 5531 5530 5530 5529 5528 5527 5525 5523 5521 5519 5517 5515 5513 5510 5509 5507 5507 5504 5503 5502 5503 5504 5506 5509 5513 5518 5522
5540 5540 5540 5540 5539 5538 5537 5536 5535 5535 5535 5535 5535 5534 5534 5533 5532 5530 5529 5527 5525 5523 5522 5520 5518 5516 5515 5515 5513 5511 5510 5511 5512 5515 5517 5520 5525 5529
5543 5543 5543 5543 5542 5541 5540 5540 5539 5540 5540 5540 5540 5539 5539 5538 5537 5536 5534 5532 5531 5530 5528 5527 5525 5524 5523 5522 5522 5521 5520 5520 5521 5523 5525 5528 5532 5536
5546 5546 5546 5546 5545 5545 5544 5544 5544 5544 5545 5545 5545 5544 5544 5543 5542 5541 5540 5538 5537 5536 5535 5534 5533 5531 5531 5531 5530 5530 5529 5530 5530 5531 5533 5536 5540 5543
5549 5550 5550 5550 5549 5549 5548 5548 5549 5549 5550 5550 5550 5550 5549 5548 5548 5547 5545 5544 5543 5542 5541 5540 5539 5539 5538 5538 5538 5538 5538 5539 5539 5540 5542 5544 5547 5550
Wind_Speed
58 60 62 64 66 68 68 69 69 67 65 65 65 65 65 65 64 64 63 63 63 63 63 63 63 63 64 64 64 64 65 64 63 62 61 59 58 57
60 62 64 66 67 68 69 69 69 69 68 67 66 65 63 62 60 59 58 57 56 56 57 56 57 57 58 60 61 62 63 64 64 63 63 62 60 58
60 62 64 66 67 68 69 69 69 69 69 65 63 60 56 53 51 50 49 48 47 46 47 48 48 49 51 53 55 57 59 61 62 62 62 62 60 59
61 63 64 66 67 68 68 67 66 65 63 58 53 49 47 45 43 42 41 40 40 40 41 41 42 43 44 46 47 50 53 55 57 58 59 59 59 58
62 64 65 66 66 65 65 63 60 57 53 48 43 41 39 38 38 36 35 35 35 34 34 34 35 36 38 40 41 43 45 48 51 53 54 55 55 55
62 63 64 63 63 61 57 54 50 47 43 40 36 34 34 34 32 30 29 29 29 29 29 29 29 30 31 33 35 36 38 41 43 46 48 50 51 52
61 61 60 59 56 52 48 44 41 37 34 32 29 29 29 27 26 24 23 22 23 23 22 23 23 24 25 26 28 29 32 34 37 40 42 45 47 48
58 56 54 51 47 43 40 36 34 31 28 26 25 23 21 20 18 17 16 16 16 17 17 17 18 19 20 21 22 24 26 29 32 35 37 40 43 45
52 49 45 42 39 36 32 29 27 24 21 20 18 15 14 13 12 12 12 11 11 13 13 13 14 14 16 17 18 20 23 25 27 30 33 36 38 41
44 40 36 34 32 28 24 21 18 16 15 13 11 10 9 9 9 8 9 9 9 10 10 10 11 12 12 14 15 18 20 23 25 27 30 33 35 38
35 32 29 27 23 20 17 14 12 11 9 8 7 7 7 7 8 8 8 8 8 9 9 9 9 9 10 11 13 16 19 21 24 26 29 31 33 36
28 26 23 20 17 14 11 9 7 6 5 5 6 6 7 7 8 9 9 8 8 8 8 8 7 8 8 9 10 12 16 19 23 25 28 30 32 33
22 19 16 13 11 8 6 5 5 5 6 6 6 7 7 8 9 9 9 9 9 9 8 7 6 6 6 6 7 8 11 14 18 22 26 29 31 33
15 12 10 8 6 5 5 6 6 6 7 7 7 8 8 8 9 10 11 11 11 11 9 8 7 7 5 4 3 3 5 8 13 18 22 27 30 32
9 7 6 5 5 6 7 7 7 7 7 8 8 8 9 9 10 11 13 14 13 13 12 10 10 9 8 7 6 4 3 5 9 13 18 23 27 29
5 4 4 5 7 7 7 8 8 8 8 8 9 10 10 11 12 13 14 15 14 14 13 12 12 13 13 12 11 10 9 9 10 13 16 21 24 27
3 4 6 7 7 7 8 8 8 8 8 9 10 11 11 12 13 14 15 15 15 15 15 14 14 16 16 16 16 15 15 14 14 15 17 19 23 26
5 6 7 8 8 8 8 8 8 8 9 10 11 11 12 13 13 14 15 16 16 16 17 17 17 18 18 18 19 20 19 18 18 18 18 18 21 24
7 8 9 9 9 9 9 8 9 9 10 11 11 11 12 13 13 14 15 16 17 17 17 18 18 19 19 19 21 22 23 23 21 20 20 19 19 21
9 9 10 10 10 9 9 10 10 11 12 12 11 12 12 12 13 14 15 15 16 17 18 18 19 20 21 20 20 22 23 24 23 22 21 20 19 20
10 10 11 10 10 10 11 11 12 12 13 12 12 12 11 11 12 13 14 15 15 16 17 18 19 20 20 20 20 22 23 24 25 24 24 22 21 20
11 11 11 11 11 11 11 12 12 13 13 13 13 13 13 13 14 14 15 16 16 16 16 16 18 19 20 20 19 20 21 22 23 24 25 25 24 22
12 12 12 12 12 12 12 12 12 13 13 13 13 13 14 14 14 15 15 16 16 17 16 16 16 18 19 19 20 20 20 21 22 23 22 23 23 22
Wind_Direction
295 296 296 297 297 297 296 296 295 293 292 291 289 288 287 286 284 282 279 277 275 273 271 269 267 266 264 261 260 258 256 254 252 250 248 246 245 244
297 298 298 298 298 297 296 296 295 294 292 291 290 289 288 286 284 282 280 278 275 273 272 269 267 264 262 260 258 256 254 252 250 248 246 244 243 242
299 299 299 298 298 297 297 296 296 295 294 293 291 290 288 286 284 282 281 278 276 272 270 268 265 263 260 258 256 254 251 249 247 245 244 241 240 239
299 299 299 299 298 298 298 297 296 296 295 295 293 291 289 286 285 283 281 278 275 272 270 268 264 262 260 257 255 252 249 247 244 242 240 238 237 235
300 300 300 300 300 299 299 298 298 297 297 296 294 291 288 287 286 284 281 279 276 273 269 266 264 261 258 255 253 250 247 243 240 238 236 234 232 230
301 302 302 302 301 301 300 300 299 299 298 297 295 291 290 289 287 285 282 278 275 272 270 266 262 259 257 254 251 247 243 239 236 234 231 229 227 226
303 303 304 303 303 302 302 302 301 301 300 299 297 294 292 290 288 286 282 278 276 274 270 266 263 259 255 252 248 243 239 236 232 228 226 224 223 222
305 305 305 305 304 304 304 303 302 301 301 300 299 297 295 293 291 289 287 281 277 275 273 270 267 261 255 249 244 239 235 231 228 225 222 221 220 219
306 306 306 306 307 307 306 304 303 303 302 303 304 304 303 301 300 298 296 291 284 280 279 275 270 263 256 249 244 239 234 229 225 221 218 217 216 216
307 308 309 310 310 310 309 308 307 307 308 311 313 314 316 318 318 314 311 307 299 293 289 284 279 272 263 254 247 240 233 228 225 222 219 216 214 214
310 312 314 315 314 315 316 315 314 315 321 328 335 341 345 345 341 336 329 322 316 310 307 302 295 286 275 263 253 244 235 230 226 223 219 216 214 212
313 316 318 319 319 323 326 330 337 349 0 5 7 10 7 3 359 355 350 343 336 329 325 317 309 299 286 274 262 249 240 233 228 224 219 215 213 211
316 319 322 324 329 338 352 9 21 26 26 27 25 21 17 12 7 5 2 357 354 356 357 353 343 331 315 295 276 259 245 234 225 221 216 213 211 210
321 325 330 339 355 17 33 41 44 46 44 38 35 30 25 23 23 20 18 18 18 20 20 17 15 9 2 354 323 272 245 222 214 211 209 206 205 205
331 339 354 16 43 54 56 56 54 52 47 44 42 40 42 44 38 32 30 30 30 32 36 38 38 39 45 56 58 72 123 164 179 186 190 192 194 197
353 13 41 61 67 66 62 58 56 53 52 53 52 58 60 54 45 40 39 39 40 43 44 50 54 57 61 66 69 77 99 124 142 156 167 175 181 185
41 68 76 78 73 68 62 59 58 57 60 64 70 71 67 60 53 48 46 47 50 52 52 58 66 67 69 74 78 83 94 106 119 133 147 161 169 173
91 91 89 81 74 70 65 62 63 68 75 82 82 77 72 65 61 55 52 53 56 59 60 64 71 74 74 79 83 87 92 99 106 116 127 141 156 164
103 99 91 82 74 67 65 67 75 84 91 92 88 83 77 71 66 60 57 58 59 62 64 67 72 76 78 81 86 91 93 97 101 108 116 126 140 153
108 102 91 82 71 66 69 79 89 97 99 96 91 89 84 75 67 62 61 61 61 63 67 70 74 78 82 83 86 91 96 98 102 107 112 118 127 139
110 101 90 80 72 70 77 88 97 104 103 97 94 92 85 75 69 67 66 65 65 67 72 75 78 80 82 83 85 90 95 99 102 106 108 111 118 127
109 99 89 81 75 75 84 94 103 108 106 100 96 91 84 77 73 72 73 73 72 74 77 80 81 81 81 82 86 90 93 98 104 108 112 114 117 121
108 97 88 83 78 78 88 97 105 110 108 103 97 90 83 78 74 73 75 77 77 78 80 81 83 84 86 86 87 89 91 96 101 105 111 115 119 126